This demonstration page uses our WeatherBlox Daily Observations layout. Learn more.

Left ArrowRight Arrow

Hourly Observations for January 20, 2018

Temp ( °F °C ) Dew Point ( °F °C ) Humidity (%) Winds ( mph kmh ) Pressure ( in mb ) Visibility ( mi km ) Precip ( " mm )
12:56 am 00:56 Clear 34 1.1 30 -1.1 85 85 N 7 11 29.79 1009 10 16 0.00 0.00
1:56 am 01:56 Clear 30 -1.1 28 -2.2 92 92 N 10 17 29.78 1009 10 16 0.00 0.00
2:56 am 02:56 Clear 31 -0.6 28 -2.2 89 89 N 9 15 29.79 1009 10 16 0.00 0.00
3:56 am 03:56 Clear 28 -2.2 26 -3.3 92 92 N 6 9 29.80 1009 10 16 0.00 0.00
4:56 am 04:56 Clear 29 -1.7 26 -3.3 89 89 NNE 8 13 29.80 1009 10 16 0.00 0.00
5:56 am 05:56 Clear 26 -3.3 24 -4.4 92 92 NNE 8 13 29.82 1010 10 16 0.00 0.00
6:56 am 06:56 Clear 27 -2.8 25 -3.9 92 92 NE 6 9 29.84 1010 10 16 0.00 0.00
7:56 am 07:56 Sunny 25 -3.9 24 -4.4 96 96 NNE 12 19 29.85 1011 10 16 0.00 0.00
8:56 am 08:56 Sunny 32 0 29 -1.7 88 88 NE 12 19 29.84 1011 10 16 0.00 0.00
9:56 am 09:56 Sunny 36 2.2 31 -0.6 82 82 NNE 12 19 29.86 1011 10 16 0.00 0.00
10:56 am 10:56 Sunny 38 3.3 32 0 79 79 NNE 14 22 29.86 1011 10 16 0.00 0.00
11:56 am 11:56 Sunny 41 5 34 1.1 76 76 NE 12 19 29.85 1011 10 16 0.00 0.00
12:56 pm 12:56 Sunny 43 6.1 35 1.7 74 74 ENE 14 22 29.81 1010 10 16 0.00 0.00
1:56 pm 13:56 Sunny 45 7.2 36 2.2 71 71 NE 12 19 29.80 1009 10 16 0.00 0.00
2:56 pm 14:56 Sunny 46 7.8 36 2.2 68 68 ENE 14 22 29.79 1009 10 16 0.00 0.00
3:56 pm 15:56 Sunny 46 7.8 36 2.2 68 68 ENE 14 22 29.81 1009 10 16 0.00 0.00
4:56 pm 16:56 Sunny 43 6.1 35 1.7 74 74 ENE 10 17 29.82 1010 10 16 0.00 0.00
5:56 pm 17:56 Clear 38 3.3 33 0.6 83 83 NE 7 11 29.85 1011 10 16 0.00 0.00
6:56 pm 18:56 Clear 37 2.8 33 0.6 86 86 NNE 7 11 29.88 1012 10 16 0.00 0.00
7:56 pm 19:56 Clear 31 -0.6 29 -1.7 92 92 NNE 8 13 29.89 1012 10 16 0.00 0.00
8:56 pm 20:56 Clear 32 0 30 -1.1 92 92 N 12 19 29.88 1012 10 16 0.00 0.00
9:56 pm 21:56 Mostly Clear 32 0 29 -1.7 88 88 NNE 14 22 29.87 1011 10 16 0.00 0.00
10:09 pm 22:09 Mostly Cloudy 34 1 30 -1 87 87 NNE 15 24 29.91 1013 10 16 0.00 0.00
10:38 pm 22:38 Cloudy 34 1 30 -1 87 87 NNE 14 22 29.91 1013 10 16 0.00 0.00
10:56 pm 22:56 Cloudy 34 1.1 30 -1.1 85 85 NNE 14 22 29.86 1011 10 16 0.00 0.00
11:56 pm 23:56 Cloudy 34 1.1 30 -1.1 85 85 NNE 13 20 29.86 1011 10 16 0.00 0.00

Powered by AerisWeather